Tracking 18852 objects as of 23-Nov-2017
HD Live streaming from Space Station
objects crossing your sky now

FENGYUN 1C DEB

Track FENGYUN 1C DEB now!
10-day predictions


NORAD ID: 36730
Int'l Code: 1999-025EBC
Perigee: 736.7 km
Apogee: 787.6 km
Inclination: 99.6 °
Period: 99.9 minutes
Semi major axis: 7133 km
RCS: 0.0027 m2 (small)
Launch date: May 10, 1999
Source: People's Republic of China (PRC)
Launch site: Taiyaun Space Center, China (TSC)

Note: This is SATELLITE DEBRIS
aabbcc
Your satellite tracking list
Your tracking list is empty




NASA's NSSDC Master Catalog

Two Line Element Set (TLE):
1 36730U 99025EBC 17327.45716615  .00002068  00000-0  65473-3 0  9993
2 36730  99.6413  60.0720 0035650 281.2621 141.0627 14.41052720428909
Source of the keplerian elements: AFSPC